PSLV R/B

Last updated on Sun Jan 05 2025 00:02:04 GMT+0000 (Coordinated Universal Time)

1 62257U 24233B 25003.81063117 -.00000278 00000+0 -56270-2 0 9993 2 62257 59.3462 143.9813 8127883 189.1257 130.6490 1.20436540 358

Satellite not in orbit

PSLV R/B